Weather History for Athens, OH

Change the Weather History Date:

Thursday, February 6, 2014

  Actual Average (KPKB) Record (KPKB)
Temperature  
Mean Temperature 22 °F 33 °F  
Max Temperature 26 °F 42 °F 67 °F (2008)
Min Temperature 17 °F 24 °F -4 °F (2007)
Degree Days  
Heating Degree Days 44 32  
Since 1 July heating degree days 3139  
Moisture  
Dew Point 17 °F    
Average Humidity 79    
Maximum Humidity 90    
Minimum Humidity 62    
Precipitation  
Precipitation 0.00 in 0.09 in 0.50 in (2002)
Month to date precipitation 0.59  
Year to date precipitation 3.54  
Sea Level Pressure  
Sea Level Pressure 30.36 in    
Wind  
Wind Speed 3 mph (West)    
Max Wind Speed 10 mph    
Max Gust Speed -    
Visibility 8 miles    
Events Snow    
T = Trace of Precipitation, MM = Missing Value Source: NWS Daily Summary

Daily Weather History Graph

Daily Weather History Graph

Search for Another Location

Airport:

Trip Planner

Search our weather history database for the weather conditions in past years. The results will help you decide how hot, cold, wet, or windy it might be!

Date:

Astronomy

Feb. 06, 2014 Rise Set
Actual Time 7:30 AM EST 5:55 PM EST
Civil Twilight 7:02 AM EST 6:23 PM EST
Nautical Twilight 6:31 AM EST 6:55 PM EST
Astronomical Twilight 5:59 AM EST 7:26 PM EST
Moon 11:26 AM EST (2/6) 12:45 AM EST (2/6)
Length of Visible Light 11h 20m
Length of Day
10h 24m
Waxing Crescent, 49% of the Moon is Illuminated
Feb 6
Waxing Crescent
Feb 6
First Quarter
Feb 14
Full
Feb 22
Last Quarter
Mar 1
New

Hourly Weather History & Observations

Time (EST) Temp. Windchill Dew Point Humidity Pressure Visibility Wind Dir Wind Speed Gust Speed Precip Events Conditions
12:15 AM 23.7 °F 16.6 °F 19.2 °F 83% 30.31 in 10.0 mi NW 5.8 mph - N/A Snow Light Snow
12:35 AM 23.7 °F - 19.4 °F 84% 30.31 in 10.0 mi Calm Calm - N/A Snow Light Snow
12:55 AM 23.7 °F 19.3 °F 19.4 °F 84% 30.31 in 10.0 mi NW 3.5 mph - N/A Snow Light Snow
1:15 AM 23.7 °F - 19.4 °F 84% 30.31 in 10.0 mi Calm Calm - N/A Snow Light Snow
1:35 AM 23.7 °F - 19.8 °F 85% 30.32 in 10.0 mi Calm Calm - N/A Snow Light Snow
1:55 AM 23.7 °F - 19.9 °F 85% 30.33 in 10.0 mi Calm Calm - N/A Snow Light Snow
2:15 AM 23.5 °F - 20.1 °F 87% 30.32 in 5.0 mi Calm Calm - N/A Snow Light Snow
2:35 AM 23.5 °F - 20.3 °F 87% 30.33 in 10.0 mi Calm Calm - N/A Snow Light Snow
2:55 AM 23.5 °F - 20.3 °F 87% 30.33 in 10.0 mi Calm Calm - N/A Snow Light Snow
3:15 AM 23.5 °F - 20.1 °F 87% 30.33 in 10.0 mi Calm Calm - N/A Snow Light Snow
3:35 AM 23.4 °F 18.9 °F 19.8 °F 86% 30.34 in 4.0 mi NNW 3.5 mph - N/A Snow Light Snow
3:55 AM 23.0 °F - 19.6 °F 87% 30.34 in 5.0 mi Calm Calm - N/A Snow Light Snow
4:15 AM 22.8 °F 18.2 °F 18.3 °F 83% 30.34 in 7.0 mi North 3.5 mph - N/A Snow Light Snow
4:35 AM 22.6 °F - 18.5 °F 84% 30.34 in 5.0 mi Calm Calm - N/A Snow Light Snow
4:55 AM 22.6 °F - 18.5 °F 84% 30.34 in 5.0 mi Calm Calm - N/A Snow Light Snow
5:15 AM 22.5 °F - 18.7 °F 85% 30.35 in 4.0 mi Calm Calm - N/A Snow Light Snow
5:35 AM 22.1 °F - 18.9 °F 87% 30.36 in 4.0 mi Calm Calm - N/A Snow Light Snow
5:55 AM 22.1 °F - 19.0 °F 88% 30.36 in 4.0 mi Calm Calm - N/A Snow Light Snow
6:15 AM 22.1 °F - 19.4 °F 89% 30.36 in 5.0 mi Calm Calm - N/A Snow Light Snow
6:35 AM 22.1 °F - 19.0 °F 88% 30.36 in 7.0 mi Calm Calm - N/A Snow Light Snow
6:55 AM 21.7 °F 14.3 °F 18.5 °F 87% 30.37 in 7.0 mi West 5.8 mph - N/A Snow Light Snow
7:15 AM 19.9 °F 12.1 °F 16.9 °F 88% 30.38 in 10.0 mi West 5.8 mph - N/A   Overcast
7:35 AM 17.8 °F 10.9 °F 15.1 °F 89% 30.39 in 10.0 mi West 4.6 mph - N/A   Scattered Clouds
7:55 AM 17.2 °F 11.9 °F 14.7 °F 90% 30.39 in 10.0 mi WSW 3.5 mph - N/A   Clear
8:15 AM 17.4 °F - 14.9 °F 90% 30.39 in 10.0 mi Calm Calm - N/A   Clear
8:35 AM 17.2 °F - 14.7 °F 90% 30.39 in 10.0 mi Calm Calm - N/A   Unknown
8:55 AM 18.5 °F - 15.4 °F 88% 30.40 in 10.0 mi Calm Calm - N/A   Scattered Clouds
9:15 AM 18.9 °F 13.7 °F 14.7 °F 84% 30.40 in 10.0 mi West 3.5 mph - N/A   Clear
9:35 AM 21.2 °F 16.4 °F 15.6 °F 79% 30.41 in 10.0 mi WSW 3.5 mph - N/A   Clear
9:55 AM 22.3 °F 16.1 °F 14.5 °F 72% 30.42 in 10.0 mi West 4.6 mph - N/A   Clear
10:15 AM 23.0 °F - 13.5 °F 67% 30.41 in 10.0 mi Calm Calm - N/A   Clear
10:35 AM 23.4 °F 17.4 °F 13.3 °F 65% 30.42 in 10.0 mi North 4.6 mph - N/A   Clear
10:55 AM 23.7 °F 19.3 °F 13.3 °F 64% 30.43 in 10.0 mi West 3.5 mph - N/A   Scattered Clouds
11:15 AM 24.3 °F 17.3 °F 12.9 °F 62% 30.42 in 10.0 mi WNW 5.8 mph - N/A   Scattered Clouds
11:35 AM 23.9 °F 18.0 °F 13.1 °F 63% 30.41 in 10.0 mi West 4.6 mph - N/A   Mostly Cloudy
11:55 AM 24.4 °F 18.6 °F 14.2 °F 65% 30.41 in 10.0 mi West 4.6 mph - N/A   Mostly Cloudy
12:15 PM 24.6 °F - 14.0 °F 64% 30.40 in 10.0 mi Calm Calm - N/A   Overcast
12:35 PM 24.8 °F 17.9 °F 15.1 °F 67% 30.39 in 10.0 mi West 5.8 mph - N/A   Overcast
12:55 PM 24.8 °F 19.1 °F 15.8 °F 69% 30.38 in 7.0 mi West 4.6 mph - N/A Snow Light Snow
1:15 PM 25.7 °F 18.0 °F 16.2 °F 67% 30.37 in 10.0 mi West 6.9 mph - N/A   Overcast
1:35 PM 25.7 °F 20.1 °F 15.6 °F 66% 30.36 in 10.0 mi West 4.6 mph - N/A   Overcast
1:55 PM 26.6 °F 18.2 °F 15.4 °F 63% 30.36 in 10.0 mi WSW 8.1 mph - N/A   Overcast
2:15 PM 26.6 °F 16.8 °F 15.8 °F 64% 30.35 in 10.0 mi WSW 10.4 mph - N/A   Overcast
2:35 PM 26.2 °F 18.6 °F 16.5 °F 67% 30.34 in 10.0 mi West 6.9 mph - N/A   Overcast
2:55 PM 25.7 °F 19.0 °F 18.5 °F 74% 30.34 in 10.0 mi WNW 5.8 mph - N/A Snow Light Snow
3:15 PM 26.1 °F 17.6 °F 18.0 °F 71% 30.34 in 10.0 mi West 8.1 mph - N/A   Overcast
3:35 PM 26.2 °F 18.6 °F 18.1 °F 71% 30.34 in 7.0 mi West 6.9 mph - N/A Snow Light Snow
3:55 PM 25.7 °F 17.1 °F 18.7 °F 75% 30.35 in 5.0 mi WSW 8.1 mph - N/A Snow Light Snow
4:15 PM 25.5 °F 18.7 °F 19.6 °F 78% 30.34 in 5.0 mi West 5.8 mph - N/A Snow Light Snow
4:35 PM 25.3 °F 17.6 °F 19.8 °F 79% 30.34 in 2.5 mi WSW 6.9 mph - N/A Snow Light Snow
4:55 PM 25.2 °F 17.3 °F 20.3 °F 82% 30.34 in 3.0 mi West 6.9 mph - N/A Snow Light Snow
5:15 PM 24.8 °F 16.1 °F 20.3 °F 83% 30.35 in 2.5 mi West 8.1 mph - N/A Snow Light Snow
5:35 PM 24.6 °F 17.7 °F 20.1 °F 83% 30.33 in 2.0 mi West 5.8 mph - N/A Snow Light Snow
5:55 PM 24.4 °F 15.6 °F 20.1 °F 84% 30.34 in 2.5 mi West 8.1 mph - N/A Snow Light Snow
6:15 PM 23.7 °F 13.3 °F 18.5 °F 80% 30.34 in 10.0 mi West 10.4 mph - N/A Snow Light Snow
6:35 PM 22.6 °F 11.9 °F 16.2 °F 76% 30.34 in 10.0 mi West 10.4 mph - N/A   Scattered Clouds
6:55 PM 21.9 °F 11.0 °F 16.3 °F 79% 30.35 in 10.0 mi West 10.4 mph - N/A   Scattered Clouds
7:15 PM 21.6 °F 11.3 °F 15.6 °F 78% 30.35 in 10.0 mi West 9.2 mph - N/A   Scattered Clouds
7:35 PM 20.8 °F 12.1 °F 14.9 °F 78% 30.36 in 10.0 mi West 6.9 mph - N/A   Mostly Cloudy
7:55 PM 20.3 °F 12.5 °F 14.4 °F 78% 30.37 in 10.0 mi WSW 5.8 mph - N/A   Mostly Cloudy
8:15 PM 20.1 °F 15.2 °F 14.4 °F 78% 30.37 in 10.0 mi WSW 3.5 mph - N/A   Overcast
8:35 PM 20.3 °F 15.4 °F 14.5 °F 78% 30.38 in 10.0 mi SW 3.5 mph - N/A   Overcast
8:55 PM 20.3 °F 15.4 °F 14.4 °F 78% 30.37 in 10.0 mi SW 3.5 mph - N/A   Overcast
9:15 PM 20.3 °F - 14.5 °F 78% 30.37 in 10.0 mi Calm Calm - N/A   Overcast
9:35 PM 20.3 °F 15.4 °F 14.9 °F 80% 30.37 in 10.0 mi South 3.5 mph - N/A   Overcast
9:55 PM 20.3 °F 15.4 °F 14.9 °F 80% 30.37 in 10.0 mi South 3.5 mph - N/A   Overcast
10:15 PM 20.3 °F 15.4 °F 15.1 °F 80% 30.37 in 10.0 mi SSW 3.5 mph - N/A   Overcast
10:35 PM 20.7 °F - 15.4 °F 80% 30.36 in 10.0 mi Calm Calm - N/A   Overcast
10:55 PM 20.7 °F - 15.6 °F 81% 30.36 in 10.0 mi Calm Calm - N/A   Overcast
11:15 PM 20.5 °F - 15.8 °F 82% 30.35 in 10.0 mi Calm Calm - N/A Snow Light Snow
11:35 PM 20.7 °F - 16.2 °F 83% 30.36 in 10.0 mi Calm Calm - N/A Snow Light Snow
11:55 PM 20.7 °F - 16.5 °F 84% 30.35 in 10.0 mi Calm Calm - N/A Snow Light Snow